Ruston, LA

8:49 PM CDT on May 22, 2018 (GMT -0500)
Ruston Regional

Weather History for KRSN - March, 2014

Change the Weather History Date:

Friday, March 7, 2014

  Actual Average Record
Temperature  
Mean Temperature 46 °F -  
Max Temperature 62 °F 64 °F 86 °F (1956)
Min Temperature 31 °F 39 °F 22 °F (1943)
Degree Days  
Heating Degree Days 18    
Moisture  
Dew Point 39 °F    
Average Humidity 82    
Maximum Humidity 100    
Minimum Humidity 40    
Precipitation  
Precipitation 0.00 in - - ()
Sea Level Pressure  
Sea Level Pressure 30.08 in    
Wind  
Wind Speed 2 mph (South)    
Max Wind Speed 10 mph    
Max Gust Speed -    
Visibility 6 miles    
Events Fog    
Averages and records for this station are not official NWS values.
T = Trace of Precipitation, MM = Missing Value Source: NWS Daily Summary

Daily Weather History Graph

Daily Weather History Graph

Search for Another Location

Airport or City:

Astronomy

Mar. 07, 2014 Rise Set
Actual Time 6:30 AM CST 6:12 PM CST
Civil Twilight 6:06 AM CST 6:37 PM CST
Nautical Twilight 5:37 AM CST 7:05 PM CST
Astronomical Twilight 5:09 AM CST 7:34 PM CST
Moon 10:44 AM CST (3/7) No Moon Set
Length of Visible Light 12h 30m
Length of Day
11h 41m
Waxing Crescent, 42% of the Moon is Illuminated
Mar 7
Waxing Crescent
Mar 8
First Quarter
Mar 16
Full
Mar 23
Last Quarter
Mar 30
New

Hourly Weather History & Observations

Time (CST) Temp. Windchill Dew Point Humidity Pressure Visibility Wind Dir Wind Speed Gust Speed Precip Events Conditions
12:15 AM 37.0 °F - 37.0 °F 100% 30.14 in 0.2 mi Calm Calm - N/A Fog Fog
12:35 AM 36.5 °F - 36.5 °F 100% 30.14 in 0.2 mi Calm Calm - N/A Fog Fog
12:55 AM 36.1 °F - 36.1 °F 100% 30.14 in 0.2 mi Calm Calm - N/A Fog Fog
1:15 AM 36.3 °F - 36.3 °F 100% 30.14 in 0.2 mi Calm Calm - N/A Fog Fog
1:35 AM 36.0 °F - 36.0 °F 100% 30.14 in 0.2 mi Calm Calm - N/A Fog Fog
1:55 AM 35.6 °F - 35.6 °F 100% 30.13 in 0.2 mi Calm Calm - N/A Fog Fog
2:15 AM 35.2 °F - 35.2 °F 100% 30.12 in 0.2 mi Calm Calm - N/A Fog Fog
2:35 AM 34.9 °F - 34.9 °F 100% 30.11 in 0.2 mi Calm Calm - N/A Fog Fog
2:55 AM 34.3 °F - 34.3 °F 100% 30.10 in 0.2 mi Calm Calm - N/A Fog Fog
3:15 AM 34.2 °F - 34.2 °F 100% 30.10 in 0.2 mi Calm Calm - N/A Fog Fog
3:35 AM 34.0 °F - 34.0 °F 100% 30.09 in 0.2 mi Calm Calm - N/A Fog Fog
3:55 AM 33.4 °F - 33.4 °F 100% 30.09 in 0.2 mi Calm Calm - N/A Fog Fog
4:15 AM 33.3 °F - 33.3 °F 100% 30.10 in 0.2 mi Calm Calm - N/A Fog Fog
4:35 AM 32.9 °F - 32.9 °F 100% 30.10 in 0.2 mi Calm Calm - N/A Fog Fog
4:55 AM 32.9 °F - 32.9 °F 100% 30.09 in 0.2 mi Calm Calm - N/A Fog Fog
5:15 AM 32.0 °F - 32.0 °F 100% 30.09 in 0.2 mi Calm Calm - N/A Fog Fog
5:35 AM 32.0 °F - 32.0 °F 100% 30.10 in 0.2 mi Calm Calm - N/A Fog Fog
5:55 AM 32.0 °F - 32.0 °F 100% 30.10 in 0.2 mi Calm Calm - N/A Fog Fog
6:15 AM 31.8 °F - 31.8 °F 100% 30.11 in 0.2 mi Calm Calm - N/A Fog Fog
6:40 AM 32.0 °F - 32.0 °F 100% 30.12 in 0.2 mi Calm Calm - N/A Fog Fog
6:55 AM 32.0 °F - 32.0 °F 100% 30.12 in 0.2 mi Calm Calm - N/A Fog Fog
7:15 AM 32.0 °F - 32.0 °F 100% 30.12 in 0.2 mi Calm Calm - N/A Fog Fog
7:35 AM 32.2 °F - 32.2 °F 100% 30.13 in 0.2 mi Calm Calm - N/A Fog Fog
7:55 AM 32.4 °F - 32.4 °F 100% 30.14 in 0.2 mi Calm Calm - N/A Fog Fog
8:15 AM 32.9 °F - 32.9 °F 100% 30.15 in 0.2 mi Calm Calm - N/A Fog Fog
8:35 AM 34.7 °F - 34.7 °F 100% 30.16 in 0.2 mi Calm Calm - N/A Fog Fog
8:55 AM 36.1 °F - 36.1 °F 100% 30.16 in 0.2 mi Calm Calm - N/A Fog Fog
9:15 AM 36.3 °F - 36.3 °F 100% 30.16 in 0.2 mi Calm Calm - N/A Fog Fog
9:35 AM 37.9 °F - 37.9 °F 100% 30.16 in 2.5 mi Calm Calm - N/A   Overcast
9:55 AM 40.3 °F - 40.1 °F 99% 30.15 in 10.0 mi Calm Calm - N/A   Mostly Cloudy
10:15 AM 42.1 °F - 41.9 °F 99% 30.15 in 10.0 mi Calm Calm - N/A   Scattered Clouds
10:35 AM 43.7 °F 42.1 °F 43.3 °F 99% 30.15 in 10.0 mi South 3.5 mph - N/A   Clear
10:55 AM 44.8 °F - 44.2 °F 98% 30.14 in 10.0 mi Calm Calm - N/A   Clear
11:15 AM 46.0 °F - 45.5 °F 98% 30.14 in 10.0 mi Calm Calm - N/A   Clear
11:35 AM 48.9 °F - 48.6 °F 99% 30.13 in 10.0 mi South 3.5 mph - N/A   Clear
11:55 AM 55.4 °F - 41.2 °F 59% 30.13 in 10.0 mi SSW 5.8 mph - N/A   Clear
12:15 PM 55.9 °F - 40.3 °F 56% 30.11 in 10.0 mi SSE 5.8 mph - N/A   Clear
12:35 PM 58.3 °F - 38.1 °F 47% 30.10 in 10.0 mi South 5.8 mph - N/A   Clear
12:55 PM 58.8 °F - 36.7 °F 44% 30.09 in 10.0 mi SSE 8.1 mph - N/A   Clear
1:15 PM 59.4 °F - 37.8 °F 45% 30.08 in 10.0 mi SSW 9.2 mph - N/A   Clear
1:35 PM 59.0 °F - 37.0 °F 44% 30.06 in 10.0 mi SSW 5.8 mph - N/A   Clear
1:55 PM 60.1 °F - 36.1 °F 41% 30.05 in 10.0 mi SSW 6.9 mph - N/A   Clear
2:15 PM 60.4 °F - 36.1 °F 40% 30.04 in 10.0 mi Calm Calm - N/A   Clear
2:35 PM 60.6 °F - 38.3 °F 44% 30.04 in 10.0 mi SSE 8.1 mph - N/A   Clear
2:55 PM 60.8 °F - 38.7 °F 44% 30.04 in 10.0 mi South 6.9 mph - N/A   Clear
3:15 PM 60.1 °F - 38.5 °F 45% 30.03 in 10.0 mi SSW 5.8 mph - N/A   Clear
3:35 PM 60.3 °F - 39.0 °F 45% 30.02 in 10.0 mi South 9.2 mph - N/A   Clear
3:55 PM 62.1 °F - 39.7 °F 44% 30.02 in 10.0 mi SSW 8.1 mph - N/A   Clear
4:15 PM 61.7 °F - 39.9 °F 45% 30.01 in 10.0 mi South 10.4 mph - N/A   Clear
4:35 PM 61.7 °F - 40.5 °F 46% 30.01 in 10.0 mi South 8.1 mph - N/A   Clear
4:55 PM 61.0 °F - 41.2 °F 48% 30.01 in 10.0 mi SSW 8.1 mph - N/A   Clear
5:15 PM 61.0 °F - 41.0 °F 48% 30.01 in 10.0 mi South 8.1 mph - N/A   Clear
5:35 PM 60.1 °F - 41.5 °F 50% 30.01 in 10.0 mi SSW 6.9 mph - N/A   Clear
5:55 PM 58.1 °F - 42.1 °F 55% 30.02 in 10.0 mi South 5.8 mph - N/A   Clear
6:15 PM 55.0 °F - 44.2 °F 67% 30.02 in 10.0 mi Calm Calm - N/A   Clear
6:35 PM 52.9 °F - 44.8 °F 74% 30.02 in 10.0 mi Calm Calm - N/A   Clear
6:55 PM 51.1 °F - 44.2 °F 77% 30.02 in 10.0 mi Calm Calm - N/A   Clear
7:15 PM 50.2 °F - 45.0 °F 82% 30.03 in 10.0 mi SSE 4.6 mph - N/A   Clear
7:40 PM 50.0 °F - 45.0 °F 83% 30.03 in 10.0 mi South 4.6 mph - N/A   Clear
7:55 PM 47.7 °F - 44.4 °F 89% 30.04 in 10.0 mi SSE 3.5 mph - N/A   Clear
8:15 PM 48.7 °F - 44.1 °F 84% 30.05 in 10.0 mi Calm Calm - N/A   Clear
8:35 PM 46.8 °F - 44.4 °F 92% 30.05 in 10.0 mi SSE 4.6 mph - N/A   Clear
8:55 PM 49.1 °F - 45.1 °F 86% 30.05 in 10.0 mi SSE 4.6 mph - N/A   Clear
9:15 PM 48.4 °F - 44.6 °F 87% 30.04 in 10.0 mi South 4.6 mph - N/A   Clear
9:35 PM 47.3 °F - 44.4 °F 90% 30.05 in 10.0 mi South 5.8 mph - N/A   Clear
9:55 PM 47.3 °F - 44.4 °F 90% 30.05 in 10.0 mi South 5.8 mph - N/A   Clear
10:15 PM 47.1 °F - 44.2 °F 90% 30.05 in 10.0 mi South 4.6 mph - N/A   Clear
10:35 PM 46.8 °F - 44.4 °F 92% 30.04 in 10.0 mi SSE 4.6 mph - N/A   Clear
10:55 PM 46.6 °F - 44.2 °F 92% 30.05 in 10.0 mi Calm Calm - N/A   Clear
11:15 PM 46.2 °F 44.1 °F 44.2 °F 93% 30.05 in 10.0 mi South 4.6 mph - N/A   Clear
11:35 PM 45.5 °F 44.2 °F 43.9 °F 94% 30.04 in 10.0 mi South 3.5 mph - N/A   Clear
11:55 PM 46.2 °F 45.0 °F 44.6 °F 94% 30.05 in 10.0 mi South 3.5 mph - N/A   Clear